COSMOS 1697

导读

COSMOS 1697是独联体(CIS)继承自苏联航天遗产后,于1985年10月22日08:00发射的宇宙系列卫星。该系列卫星是苏联/俄罗斯应用范围最广的卫星家族,承担军事侦察、空间物理探测、技术试验等多元任务。作为冷战时期航天布局的组成部分,它延续了苏联“宇宙”系列标准化卫星的研发思路,在当时为独联体航天领域维持了空间活动连续性,也为后续轨道技术积累提供了试验数据。

基本信息
目录编号:
16181
目录名称:
COSMOS 1697
国际标识:
1985-097A
轨道中心:
EARTH
卫星名称:
COSMOS 1697
卫星全名:
--
卫星状态:
在轨 (已飞行14937 天)
发射日期:
1985-10-22 UTC
国别 :
俄罗斯(独联体) (CIS)
星等 :
--
该卫星已列入 空间交会检测服务 Space Conjunction Data Service (SCDS) ,当前飞行风险评估等级: 无高风险
轨道信息
数据来源 国际轨道数据 AOE轨道数据
星历时间 2026-09-14T02:33:20+0800
13小时前
查看轨道信息
2026-09-13T00:00:00+0800
1天前
查看轨道信息
半长轴 7224.982km 7224.99km
偏心率 0.001904 0.0018788
轨道倾角 70.963° 70.965°
近地点辐角 243.632° 246.173°
升交点赤经 185.932° 188.255°
平近点角 116.285° 244.325°
近地点 833.088km 833.278km
远地点 860.602km 860.428km
周期 101.863分钟 101.863分钟
每日圈数 14.136687 14.136664
详细信息
使用方式:
暂无
2D轨道图
3D轨道图
轨道高度分析图
轨道倾角分析图
轨道综合分析图
查看轨道综合分析图
与全量物体交会距离演化趋势 订阅飞行安全评估服务
与全量物体交会风险概率演化趋势 订阅飞行安全评估服务